Location: Chapel Hill
(35.9134°N, 79.0560°W)
Time: 02:54:29
(UTC-05:00)

BlueWalker 3 - Visible Passes

Search period start: 23 February 2024 00:00
Search period end: 04 March 2024 00:00
Orbit: 486 x 500 km, 53.2° (Epoch: 22 February)

Date Brightness Start Highest point End Pass type
(mag) Time Alt. Az. Time Alt. Az. Time Alt. Az.
28 Feb 4.7 20:10:39 10° N 20:10:50 11° N 20:10:50 11° N visible
29 Feb 4.2 19:46:48 10° N 19:48:01 13° NNE 19:48:01 13° NNE visible
01 Mar 4.0 19:22:55 10° N 19:24:49 13° NNE 19:25:14 13° NNE visible
02 Mar 4.1 18:59:02 10° N 19:00:51 13° NNE 19:02:30 10° NE visible
02 Mar 4.4 20:35:55 10° NW 20:37:00 18° NW 20:37:00 18° NW visible
03 Mar 4.1 18:35:08 10° N 18:36:51 13° NNE 18:38:34 10° NE visible
03 Mar 3.1 20:11:58 10° NW 20:14:20 36° NNW 20:14:20 36° NNW visible
